Location: �clusier
(49.9361°N, 2.7869°E)
Time: 00:17:36
(UTC+00:00)

Cosmos 1331 Rocket - Pass Details

Date: 31 October 2021
Orbit: 749 x 778 km, 74.0° (Epoch: 30 November)

Event Time Altitude Azimuth Distance (km) Brightness Sun altitude
Rises 05:13:38 0° 337° (NNW) 3,240 7.0 -13.8°
Reaches altitude 10° 05:16:01 10° 340° (NNW) 2,315 6.2 -13.4°
Maximum altitude 05:21:16 71° 64° (ENE) 819 4.3 -12.6°
Drops below altitude 10° 05:26:32 10° 149° (SSE) 2,317 7.1 -11.8°
Sets 05:28:55 0° 151° (SSE) 3,243 7.8 -11.4°
